TimeCST,TemperatureF,Dew PointF,Humidity,Sea Level PressureIn,VisibilityMPH,Wind Direction,Wind SpeedMPH,Gust SpeedMPH,PrecipitationIn,Events,Conditions,WindDirDegrees,DateUTC
12:00 AM,66,64,92,29.90,12,East,5.8,,,,Partly Cloudy,80,2013-07-05 06:00:00
12:00 AM,66.2,64.4,94,30.05,-9999.0,East,5.8,-,N/A,,Clear,80,2013-07-05 06:00:00
1:00 AM,66.2,60.8,83,30.01,-9999.0,ENE,6.9,-,N/A,,Clear,60,2013-07-05 07:00:00
2:00 AM,68.0,60.8,78,30.00,-9999.0,ENE,5.8,-,N/A,,Clear,70,2013-07-05 08:00:00
3:00 AM,68,61,71,29.86,12,East,5.8,,,,Clear,100,2013-07-05 09:00:00
3:00 AM,68.0,60.8,78,30.00,-9999.0,East,5.8,-,N/A,,Clear,100,2013-07-05 09:00:00
4:00 AM,68.0,60.8,78,30.00,-9999.0,East,6.9,-,N/A,,Clear,80,2013-07-05 10:00:00
5:00 AM,68.0,60.8,78,30.01,6.2,NE,4.6,-,N/A,,Scattered Clouds,40,2013-07-05 11:00:00
6:00 AM,66,60,74,29.89,12,NNE,10.4,,,,Scattered Clouds,30,2013-07-05 12:00:00
6:00 AM,66.2,59.0,78,30.02,6.2,NNE,10.4,-,N/A,,Scattered Clouds,30,2013-07-05 12:00:00
7:00 AM,71.6,60.8,69,30.03,6.2,ESE,8.1,-,N/A,,Mostly Cloudy,120,2013-07-05 13:00:00
8:00 AM,75.2,62.6,65,30.04,6.2,ESE,11.5,-,N/A,,Scattered Clouds,120,2013-07-05 14:00:00
9:00 AM,79,60,41,29.88,12,East,9.2,,,,Scattered Clouds,100,2013-07-05 15:00:00
9:00 AM,78.8,59.0,51,30.04,6.2,East,9.2,-,N/A,,Partly Cloudy,100,2013-07-05 15:00:00
10:00 AM,78.8,59.0,51,30.05,6.2,East,8.1,-,N/A,,Scattered Clouds,90,2013-07-05 16:00:00
11:00 AM,82.4,59.0,45,30.03,6.2,ENE,6.9,-,N/A,,Scattered Clouds,70,2013-07-05 17:00:00
12:00 PM,83,63,40,29.86,12,ESE,4.6,,,,Mostly Cloudy,110,2013-07-05 18:00:00
12:00 PM,82.4,62.6,51,30.03,6.2,ESE,4.6,-,N/A,,Scattered Clouds,110,2013-07-05 18:00:00
12:10 PM,78.8,66.2,65,30.02,6.2,WSW,6.9,-,N/A,,Scattered Clouds,240,2013-07-05 18:10:00
1:00 PM,78.8,66.2,65,30.01,6.2,WSW,9.2,-,N/A,,Scattered Clouds,240,2013-07-05 19:00:00
2:00 PM,80.6,66.2,61,29.98,6.2,WSW,9.2,-,N/A,,Scattered Clouds,240,2013-07-05 20:00:00
3:00 PM,78,67,60,29.81,12,WSW,15.0,,,,Mostly Cloudy,250,2013-07-05 21:00:00
3:00 PM,78.8,66.2,65,29.96,6.2,WSW,15.0,-,N/A,,Mostly Cloudy,250,2013-07-05 21:00:00
4:00 PM,78.8,68.0,69,29.96,6.2,WSW,15.0,-,N/A,,Scattered Clouds,240,2013-07-05 22:00:00
5:00 PM,73.4,68.0,83,29.95,6.2,WSW,16.1,-,N/A,,Scattered Clouds,240,2013-07-05 23:00:00
6:00 PM,71,68,88,29.81,12,West,10.4,,,,Partly Cloudy,270,2013-07-06 00:00:00
6:00 PM,71.6,68.0,88,29.96,6.2,West,10.4,-,N/A,,Scattered Clouds,270,2013-07-06 00:00:00
7:00 PM,69.8,68.0,94,29.98,5.0,WSW,5.8,-,N/A,Fog,Fog,250,2013-07-06 01:00:00
8:00 PM,69.8,68.0,94,29.98,6.2,WNW,4.6,-,N/A,Fog,Patches of Fog,300,2013-07-06 02:00:00
9:00 PM,69,68,94,29.82,5,WSW,3.5,,,,Mist,240,2013-07-06 03:00:00
9:00 PM,68.0,68.0,100,29.99,5.0,WSW,3.5,-,N/A,,Scattered Clouds,240,2013-07-06 03:00:00
10:00 PM,69.8,68.0,94,30.01,6.2,NW,3.5,-,N/A,,Scattered Clouds,310,2013-07-06 04:00:00
11:00 PM,-9999,-9999,N/A,30.00,6.2,Calm,Calm,-,N/A,,Scattered Clouds,0,2013-07-06 05:00:00